sat.trackr.live / text

‹ back to catalog

STARLINK-3959

NORAD 52564 · 2022-051AH

PAYLOAD ACTIVE UNKNOWN

§ Identity

Operator
Country
US
Launch date
2022-05-13
Launch site
AFWTR
Launch vehicle
Mass (kg)
RCS (m²)

Purposes: comms

External: N2YO · Heavens-Above · Gunter

§ Orbital elements

Epoch: 2026-09-19T19:55:17.681664Z

Period
94.01 min
Inclination
53.1614°
Eccentricity
0.0001384
Mean motion
15.31692129 rev/d
Perigee alt
469.8 km
Apogee alt
471.7 km
Semi-major
6,848.9 km
B*
1.8086e-5
RAAN
337.6014°
Arg perigee
77.9258°
Mean anomaly
282.1898°
Rev number
24,074

§ Raw data

STARLINK-39591 52564U 22051AH  26262.83006576  .00000196  00000+0  18086-4 0  99972 52564  53.1614 337.6014 0001384  77.9258 282.1898 15.31692129240746

JSON: /api/v1/satellites/52564 · /tle

For live sub-satellite position, see the globe view (requires WebGL).

§ Visibility from observer

Set your observer location to see the next 7 days of passes ≥ 10°. The values pass through the URL so the page stays shareable.

No JS? Fill the form by hand. The geolocation button needs JavaScript.